Location: Caixon
(43.4106°N, 0.0273°E)
Time: 22:44:39
(UTC+00:00)

FALCON 9 DEB - Pass Details

Date: 16 October 2021
Orbit: 416 x 427 km, 53.0° (Epoch: 07 December)

Event Time Altitude Azimuth Distance (km) Brightness Sun altitude
Exits shadow 04:34:07 47° 335° (NNW) 573 3.5 -19.1°
Maximum altitude 04:34:52 64° 32° (NNE) 474 3.4 -18.9°
Drops below altitude 10° 04:38:12 10° 115° (ESE) 1,500 6.7 -18.3°
Sets 04:40:18 0° 119° (ESE) 2,358 7.8 -18.0°
